When you browse on this site, cookies collect data to enhance your experience and personalize the content and advertising you see.
Visit our Privacy Policy to learn more. By continuing to use the site, you agree to this use of cookies and data.
  • In Austria
  • List of Countries
  • For 7 days
  • Water Temperature
  • Weather Map
  • News
  • Weather Widgets
  • user-avatar
    Login

    Hourly Weather Melesnica

    Today, 29 May, Friday

    Time Temperature Precipitation Wind Pressure Humidity
    00:00 +10°C° 0.1 mm 2 mps 750 mmHg 94%
    01:00 +10°C° 0.1 mm 2 mps 750 mmHg 95%
    02:00 +10°C° 0 mm 2 mps 749 mmHg 95%
    03:00 +10°C° 0.2 mm 2 mps 749 mmHg 95%
    04:00 +10°C° 0.2 mm 2 mps 749 mmHg 95%
    05:00 +10°C° 0.2 mm 2 mps 749 mmHg 95%
    06:00 +11°C° 0.1 mm 3 mps 749 mmHg 93%
    07:00 +12°C° 0.1 mm 4 mps 749 mmHg 91%
    08:00 +13°C° 0 mm 5 mps 749 mmHg 90%
    09:00 +13°C° 0.2 mm 6 mps 748 mmHg 89%
    10:00 +13°C° 0.2 mm 6 mps 748 mmHg 88%
    11:00 +13°C° 0.2 mm 6 mps 748 mmHg 87%
    12:00 +13°C° 0.3 mm 6 mps 748 mmHg 86%
    13:00 +13°C° 0.3 mm 6 mps 748 mmHg 86%
    14:00 +13°C° 0.3 mm 6 mps 748 mmHg 86%
    15:00 +13°C° 0.1 mm 6 mps 748 mmHg 84%
    16:00 +13°C° 0.1 mm 6 mps 748 mmHg 82%
    17:00 +13°C° 0.1 mm 6 mps 747 mmHg 80%
    18:00 +13°C° 0 mm 6 mps 747 mmHg 80%
    19:00 +12°C° 0 mm 5 mps 747 mmHg 81%
    20:00 +10°C° 0 mm 5 mps 747 mmHg 82%
    21:00 +10°C° 0 mm 5 mps 747 mmHg 82%
    22:00 +10°C° 0 mm 5 mps 746 mmHg 82%
    23:00 +10°C° 0 mm 5 mps 746 mmHg 82%

    Tomorrow, 30 May, Saturday

    Time Temperature Precipitation Wind Pressure Humidity
    00:00 +10°C° 0 mm 5 mps 746 mmHg 83%
    01:00 +10°C° 0 mm 5 mps 745 mmHg 83%
    02:00 +10°C° 0 mm 6 mps 745 mmHg 83%
    03:00 +10°C° 0.2 mm 6 mps 745 mmHg 86%
    04:00 +10°C° 0.2 mm 6 mps 744 mmHg 89%
    05:00 +10°C° 0.2 mm 5 mps 744 mmHg 91%
    06:00 +10°C° 0.2 mm 6 mps 743 mmHg 91%
    07:00 +11°C° 0.2 mm 6 mps 743 mmHg 92%
    08:00 +11°C° 0.2 mm 6 mps 743 mmHg 92%
    09:00 +11°C° 1.3 mm 6 mps 743 mmHg 93%
    10:00 +10°C° 1.3 mm 6 mps 742 mmHg 94%
    11:00 +10°C° 1.3 mm 7 mps 742 mmHg 95%
    12:00 +10°C° 1.1 mm 6 mps 741 mmHg 96%
    13:00 +11°C° 1.1 mm 6 mps 741 mmHg 96%
    14:00 +12°C° 1.1 mm 5 mps 741 mmHg 96%
    15:00 +12°C° 0.9 mm 5 mps 740 mmHg 96%
    16:00 +13°C° 0.9 mm 5 mps 739 mmHg 96%
    17:00 +13°C° 0.9 mm 5 mps 739 mmHg 96%
    18:00 +13°C° 3 mm 6 mps 738 mmHg 96%
    19:00 +13°C° 3 mm 6 mps 738 mmHg 96%
    20:00 +14°C° 3 mm 7 mps 737 mmHg 96%
    21:00 +14°C° 1.5 mm 7 mps 737 mmHg 96%
    22:00 +13°C° 1.5 mm 8 mps 737 mmHg 95%
    23:00 +13°C° 1.5 mm 9 mps 737 mmHg 95%

    Day after tomorrow, 31 May, Sunday

    Time Temperature Precipitation Wind Pressure Humidity
    00:00 +13°C° 0.7 mm 8 mps 737 mmHg 95%
    01:00 +14°C° 0.7 mm 7 mps 737 mmHg 95%
    02:00 +14°C° 0.7 mm 6 mps 737 mmHg 96%
    03:00 +13°C° 0.1 mm 6 mps 738 mmHg 96%
    04:00 +13°C° 0.1 mm 5 mps 738 mmHg 96%
    05:00 +13°C° 0.1 mm 5 mps 739 mmHg 96%
    06:00 +13°C° 0 mm 4 mps 740 mmHg 95%
    07:00 +13°C° 0 mm 4 mps 740 mmHg 94%
    08:00 +14°C° 0 mm 4 mps 741 mmHg 93%
    09:00 +13°C° 0.5 mm 4 mps 742 mmHg 94%
    10:00 +13°C° 0.5 mm 5 mps 742 mmHg 94%
    11:00 +13°C° 0.5 mm 6 mps 743 mmHg 95%
    12:00 +13°C° 0.6 mm 6 mps 743 mmHg 94%
    13:00 +12°C° 0.6 mm 7 mps 744 mmHg 92%
    14:00 +12°C° 0.6 mm 7 mps 744 mmHg 91%
    15:00 +13°C° 0.1 mm 6 mps 744 mmHg 89%
    16:00 +13°C° 0.1 mm 5 mps 745 mmHg 86%
    17:00 +13°C° 0.1 mm 4 mps 745 mmHg 84%
    18:00 +13°C° 0 mm 4 mps 745 mmHg 83%
    19:00 +13°C° 0 mm 4 mps 746 mmHg 83%
    20:00 +13°C° 0 mm 4 mps 746 mmHg 82%
    21:00 +12°C° 0 mm 4 mps 747 mmHg 82%
    22:00 +12°C° 0 mm 4 mps 747 mmHg 82%
    23:00 +11°C° 0 mm 4 mps 747 mmHg 83%

    1 June, Monday

    Time Temperature Precipitation Wind Pressure Humidity
    00:00 +11°C° 0 mm 4 mps 748 mmHg 81%
    01:00 +10°C° 0 mm 4 mps 748 mmHg 80%
    02:00 +9°C° 0 mm 5 mps 748 mmHg 79%
    03:00 +8°C° 0 mm 5 mps 748 mmHg 79%
    04:00 +8°C° 0 mm 5 mps 749 mmHg 79%
    05:00 +7°C° 0 mm 5 mps 749 mmHg 79%
    06:00 +8°C° 0 mm 6 mps 749 mmHg 74%
    07:00 +9°C° 0 mm 6 mps 750 mmHg 70%
    08:00 +10°C° 0 mm 7 mps 750 mmHg 65%
    09:00 +11°C° 0 mm 7 mps 750 mmHg 63%
    10:00 +12°C° 0 mm 7 mps 750 mmHg 61%
    11:00 +12°C° 0 mm 7 mps 750 mmHg 58%
    12:00 +14°C° 0 mm 6 mps 750 mmHg 58%
    13:00 +14°C° 0 mm 6 mps 750 mmHg 57%
    14:00 +14°C° 0 mm 6 mps 750 mmHg 57%
    15:00 +14°C° 0 mm 6 mps 750 mmHg 59%
    16:00 +14°C° 0 mm 5 mps 750 mmHg 60%
    17:00 +14°C° 0 mm 5 mps 750 mmHg 62%
    18:00 +12°C° 0 mm 4 mps 750 mmHg 68%
    19:00 +11°C° 0 mm 3 mps 750 mmHg 73%
    20:00 +9°C° 0 mm 2 mps 750 mmHg 79%
    21:00 +9°C° 0 mm 2 mps 750 mmHg 81%
    22:00 +8°C° 0 mm 2 mps 750 mmHg 84%
    23:00 +7°C° 0 mm 2 mps 750 mmHg 86%

    2 June, Tuesday

    Time Temperature Precipitation Wind Pressure Humidity
    00:00 +6°C° 0 mm 2 mps 750 mmHg 87%
    01:00 +6°C° 0 mm 2 mps 750 mmHg 89%
    02:00 +6°C° 0 mm 2 mps 749 mmHg 90%
    03:00 +6°C° 0 mm 2 mps 749 mmHg 89%
    04:00 +5°C° 0 mm 2 mps 749 mmHg 89%
    05:00 +5°C° 0 mm 2 mps 749 mmHg 88%
    06:00 +7°C° 0 mm 2 mps 749 mmHg 81%
    07:00 +9°C° 0 mm 3 mps 749 mmHg 74%
    08:00 +11°C° 0 mm 3 mps 749 mmHg 67%
    09:00 +12°C° 0 mm 3 mps 749 mmHg 63%
    10:00 +13°C° 0 mm 3 mps 749 mmHg 58%
    11:00 +14°C° 0 mm 4 mps 749 mmHg 54%
    12:00 +16°C° 0 mm 3 mps 748 mmHg 53%
    13:00 +16°C° 0 mm 3 mps 748 mmHg 52%
    14:00 +17°C° 0 mm 3 mps 748 mmHg 52%
    15:00 +16°C° 0.2 mm 3 mps 747 mmHg 55%
    16:00 +16°C° 0.2 mm 3 mps 747 mmHg 59%
    17:00 +16°C° 0.2 mm 3 mps 747 mmHg 62%
    18:00 +13°C° 0.1 mm 3 mps 747 mmHg 69%
    19:00 +13°C° 0.1 mm 2 mps 747 mmHg 75%
    20:00 +10°C° 0.1 mm 2 mps 746 mmHg 82%
    21:00 +9°C° 0 mm 2 mps 746 mmHg 84%
    22:00 +9°C° 0 mm 1 mps 746 mmHg 87%
    23:00 +8°C° 0 mm 1 mps 746 mmHg 89%

    3 June, Wednesday

    Time Temperature Precipitation Wind Pressure Humidity
    00:00 +8°C° 0 mm 1 mps 746 mmHg 90%
    01:00 +7°C° 0 mm 1 mps 746 mmHg 91%
    02:00 +7°C° 0 mm 1 mps 746 mmHg 91%
    03:00 +7°C° 0 mm 1 mps 746 mmHg 91%
    04:00 +7°C° 0 mm 1 mps 746 mmHg 91%
    05:00 +7°C° 0 mm 1 mps 745 mmHg 91%
    06:00 +9°C° 0 mm 1 mps 745 mmHg 85%
    07:00 +11°C° 0 mm 1 mps 745 mmHg 79%
    08:00 +13°C° 0 mm 1 mps 745 mmHg 73%
    09:00 +14°C° 0.1 mm 1 mps 745 mmHg 66%
    10:00 +15°C° 0.1 mm 1 mps 745 mmHg 60%
    11:00 +18°C° 0.1 mm 1 mps 745 mmHg 54%
    12:00 +18°C° 0.1 mm 1 mps 745 mmHg 53%
    13:00 +18°C° 0.1 mm 1 mps 744 mmHg 52%
    14:00 +18°C° 0.1 mm 1 mps 744 mmHg 52%
    15:00 +18°C° 0.1 mm 1 mps 744 mmHg 54%
    16:00 +17°C° 0.1 mm 2 mps 744 mmHg 57%
    17:00 +17°C° 0.1 mm 2 mps 744 mmHg 60%
    18:00 +15°C° 0.1 mm 1 mps 744 mmHg 65%
    19:00 +14°C° 0.1 mm 1 mps 744 mmHg 71%
    20:00 +11°C° 0.1 mm 0 mps 743 mmHg 76%
    21:00 +10°C° 0 mm 0 mps 744 mmHg 79%
    22:00 +9°C° 0 mm 0 mps 744 mmHg 81%
    23:00 +9°C° 0 mm 0 mps 744 mmHg 83%
    Show more